Moffett NAS, CA

7:54 AM PST on December 16, 2017 (GMT -0800)
Moffett Federal Air Field

Weather History for KNUQ - October, 2011

Change the Weather History Date:

Thursday, October 6, 2011

  Actual Average Record
Temperature  
Mean Temperature 59 °F 66 °F  
Max Temperature 66 °F 75 °F 93 °F (1992)
Min Temperature 51 °F 56 °F 43 °F (2007)
Degree Days  
Heating Degree Days 6    
Month to date heating degree days 13  
Since 1 July heating degree days 23  
Cooling Degree Days 0    
Month to date cooling degree days 7  
Year to date cooling degree days 390  
Growing Degree Days 8 (Base 50)    
Moisture  
Dew Point 50 °F    
Average Humidity 73    
Maximum Humidity 83    
Minimum Humidity 63    
Precipitation  
Precipitation 0.17 in 0.01 in 0.17 in (2011)
Month to date precipitation 0.95 0.06  
Year to date precipitation 10.45 9.90  
Since 1 July precipitation 0.95  
Sea Level Pressure  
Sea Level Pressure 29.98 in    
Wind  
Wind Speed 5 mph (East)    
Max Wind Speed 17 mph    
Max Gust Speed 21 mph    
Visibility 10 miles    
Events Rain    
T = Trace of Precipitation, MM = Missing Value Source: NWS Daily Summary

Daily Weather History Graph

Daily Weather History Graph

Search for Another Location

Airport or City:

Trip Planner

Search our weather history database for the weather conditions in past years. The results will help you decide how hot, cold, wet, or windy it might be!

Date:

Astronomy

Oct. 06, 2011 Rise Set
Actual Time 7:07 AM PDT 6:44 PM PDT
Civil Twilight 6:41 AM PDT 7:10 PM PDT
Nautical Twilight 6:11 AM PDT 7:40 PM PDT
Astronomical Twilight 5:41 AM PDT 8:10 PM PDT
Moon 3:55 PM PDT (10/6) 2:07 AM PDT (10/6)
Length of Visible Light 12h 28m
Length of Day
11h 36m
Waxing Gibbous, 76% of the Moon is Illuminated
Oct 6
Waxing Gibbous
Oct 11
Full
Oct 19
Last Quarter
Oct 26
New
Nov 2
First Quarter

Hourly Weather History & Observations

Time (PDT) Temp. Dew Point Humidity Pressure Visibility Wind Dir Wind Speed Gust Speed Precip Events Conditions
12:56 AM 55.0 °F 46.9 °F 74% 29.91 in 10.0 mi Calm Calm - N/A   Clear
1:56 AM 54.0 °F 46.0 °F 75% 29.92 in 10.0 mi Calm Calm - N/A   Clear
2:56 AM 52.0 °F 46.9 °F 83% 29.93 in 10.0 mi SSE 3.5 mph - N/A   Clear
3:56 AM 51.1 °F 46.0 °F 83% 29.92 in 10.0 mi SE 3.5 mph - N/A   Clear
4:56 AM 52.0 °F 46.9 °F 83% 29.93 in 10.0 mi ESE 4.6 mph - N/A   Scattered Clouds
5:56 AM 52.0 °F 46.9 °F 83% 29.94 in 10.0 mi SE 4.6 mph - N/A   Overcast
6:56 AM 54.0 °F 46.0 °F 75% 29.94 in 10.0 mi SE 6.9 mph - N/A   Scattered Clouds
7:56 AM 54.0 °F 46.9 °F 77% 29.94 in 10.0 mi SE 4.6 mph - 0.00 in Rain Light Rain
8:56 AM 55.0 °F 50.0 °F 83% 29.95 in 10.0 mi SE 8.1 mph - 0.03 in   Overcast
9:56 AM 57.0 °F 52.0 °F 83% 29.96 in 10.0 mi SE 9.2 mph - N/A   Overcast
10:56 AM 59.0 °F 54.0 °F 83% 29.97 in 10.0 mi SSE 4.6 mph - 0.01 in   Overcast
11:56 AM 62.1 °F 52.0 °F 70% 29.96 in 10.0 mi ESE 5.8 mph - N/A   Mostly Cloudy
12:56 PM 64.0 °F 51.1 °F 63% 29.95 in 10.0 mi ESE 9.2 mph - N/A   Overcast
1:29 PM 62.6 °F 51.8 °F 68% 29.94 in 10.0 mi NE 5.8 mph - N/A   Overcast
1:38 PM 60.8 °F 51.8 °F 72% 29.95 in 4.0 mi NE 5.8 mph - 0.02 in Rain Rain
1:56 PM 60.1 °F 53.1 °F 78% 29.96 in 10.0 mi Variable 3.5 mph - 0.03 in Rain Light Rain
2:56 PM 62.1 °F 52.0 °F 70% 29.96 in 10.0 mi Calm Calm - 0.00 in   Mostly Cloudy
3:11 PM 64.4 °F 53.6 °F 68% 29.96 in 10.0 mi North 5.8 mph - N/A   Overcast
3:56 PM 64.0 °F 52.0 °F 65% 29.98 in 6.0 mi NNE 17.3 mph 20.7 mph 0.02 in Rain Light Rain
4:56 PM 63.0 °F 52.0 °F 67% 29.99 in 10.0 mi North 6.9 mph - 0.08 in   Clear
5:56 PM 63.0 °F 51.1 °F 65% 30.01 in 10.0 mi NNW 3.5 mph - N/A   Clear
6:56 PM 60.1 °F 48.9 °F 67% 30.03 in 10.0 mi North 5.8 mph - N/A   Clear
7:56 PM 59.0 °F 50.0 °F 72% 30.05 in 10.0 mi North 4.6 mph - N/A   Clear
8:56 PM 59.0 °F 48.9 °F 69% 30.06 in 10.0 mi Calm Calm - N/A   Clear
9:56 PM 57.0 °F 48.9 °F 74% 30.08 in 10.0 mi West 5.8 mph - N/A   Clear
10:56 PM 55.9 °F 50.0 °F 80% 30.10 in 10.0 mi SW 3.5 mph - N/A   Clear
11:56 PM 54.0 °F 48.9 °F 83% 30.11 in 10.0 mi Calm Calm - N/A   Clear